Terminal Aerodrome Forecast
Issued by NWS Blacksburg, VA

Home | Current Version | Previous Version | Text Only | Print | Product List | Glossary On
Versions: 1 2 3 4 5 6 7 8 9 10 11 12 13 14
000
FTUS41 KRNK 211120
TAFDAN
TAF
KDAN 211120Z 2112/2212 06003KT P6SM FEW250
     FM212100 10005KT P6SM BKN250
     FM221100 22003KT P6SM SCT150 BKN250=

USA.gov is the U.S. government's official web portal to all federal, state and local government web resources and services.